Weather History for Crestview, FL

Change the Weather History Date:

Friday, October 12, 2012

  Actual Average Record
Temperature  
Mean Temperature 68 °F -  
Max Temperature 85 °F - - ()
Min Temperature 51 °F - - ()
Cooling Degree Days 3    
Growing Degree Days 18 (Base 50)    
Moisture  
Dew Point 55 °F    
Average Humidity 92    
Maximum Humidity 100    
Minimum Humidity 44    
Precipitation  
Precipitation 0.00 in - - ()
Sea Level Pressure  
Sea Level Pressure 30.20 in    
Wind  
Wind Speed 0 mph (North)    
Max Wind Speed 7 mph    
Max Gust Speed -    
Visibility 3 miles    
Events Fog    
T = Trace of Precipitation, MM = Missing Value Source: NWS Daily Summary

Daily Weather History Graph

Daily Weather History Graph

Search for Another Location

Airport:

Trip Planner

Search our weather history database for the weather conditions in past years. The results will help you decide how hot, cold, wet, or windy it might be!

Date:

Astronomy

Oct. 12, 2012 Rise Set
Actual Time 6:46 AM CDT 6:17 PM CDT
Civil Twilight 6:22 AM CDT 6:41 PM CDT
Nautical Twilight 5:54 AM CDT 7:09 PM CDT
Astronomical Twilight 5:26 AM CDT 7:37 PM CDT
Moon 3:40 AM CDT (10/12) 4:18 PM CDT (10/12)
Length of Visible Light 12h 19m
Length of Day
11h 30m
Waning Crescent, 10% of the Moon is Illuminated
Oct 12
Waning Crescent
Oct 15
New
Oct 21
First Quarter
Oct 29
Full
Nov 6
Last Quarter

Hourly Weather History & Observations

Time (CDT) Temp. Heat Index Dew Point Humidity Pressure Visibility Wind Dir Wind Speed Gust Speed Precip Events Conditions
12:55 AM 58.5 °F - 56.7 °F 94% 30.21 in 10.0 mi Calm Calm - N/A   Clear
1:55 AM 58.1 °F - 56.1 °F 93% 30.20 in 10.0 mi Calm Calm - N/A   Clear
2:24 AM 57.2 °F - 55.4 °F 94% 30.20 in 2.5 mi Calm Calm - N/A   Clear
2:25 AM 57.2 °F - 55.4 °F 94% 30.20 in 1.8 mi Calm Calm - N/A   Clear
2:26 AM 57.2 °F - 55.4 °F 94% 30.20 in 1.2 mi Calm Calm - N/A   Clear
2:27 AM 57.2 °F - 55.4 °F 94% 30.20 in 1.0 mi Calm Calm - N/A   Clear
2:29 AM 57.2 °F - 55.4 °F 94% 30.20 in 0.8 mi Calm Calm - N/A   Clear
2:32 AM 57.2 °F - 55.4 °F 94% 30.20 in 0.5 mi Calm Calm - N/A Fog Fog
2:38 AM 55.4 °F - 53.6 °F 94% 30.20 in 0.8 mi Calm Calm - N/A   Clear
2:41 AM 55.4 °F - 53.6 °F 94% 30.19 in 1.0 mi Calm Calm - N/A   Clear
2:44 AM 55.4 °F - 53.6 °F 94% 30.19 in 1.5 mi Calm Calm - N/A   Clear
2:47 AM 55.4 °F - 53.6 °F 94% 30.19 in 1.2 mi Calm Calm - N/A   Clear
2:48 AM 55.4 °F - 53.6 °F 94% 30.19 in 1.0 mi Calm Calm - N/A   Clear
2:50 AM 55.4 °F - 55.4 °F 100% 30.19 in 0.8 mi Calm Calm - N/A   Clear
2:52 AM 55.4 °F - 55.4 °F 100% 30.19 in 0.5 mi Calm Calm - N/A Fog Fog
2:55 AM 55.6 °F - 54.9 °F 97% 30.19 in 0.5 mi Calm Calm - N/A Fog Fog
2:57 AM 55.4 °F - 55.4 °F 100% 30.19 in 0.8 mi Calm Calm - N/A   Clear
2:59 AM 55.4 °F - 55.4 °F 100% 30.19 in 1.0 mi Calm Calm - N/A   Clear
3:00 AM 55.4 °F - 55.4 °F 100% 30.19 in 1.2 mi Calm Calm - N/A   Clear
3:01 AM 55.4 °F - 55.4 °F 100% 30.19 in 1.5 mi Calm Calm - N/A   Clear
3:02 AM 55.4 °F - 55.4 °F 100% 30.19 in 2.0 mi Calm Calm - N/A   Clear
3:03 AM 55.4 °F - 55.4 °F 100% 30.19 in 2.5 mi Calm Calm - N/A   Clear
3:04 AM 55.4 °F - 55.4 °F 100% 30.19 in 3.0 mi Calm Calm - N/A   Clear
3:14 AM 55.4 °F - 55.4 °F 100% 30.19 in 2.5 mi Calm Calm - N/A   Clear
3:15 AM 55.4 °F - 53.6 °F 94% 30.19 in 1.5 mi Calm Calm - N/A   Clear
3:16 AM 55.4 °F - 53.6 °F 94% 30.19 in 1.0 mi Calm Calm - N/A   Clear
3:17 AM 55.4 °F - 53.6 °F 94% 30.19 in 0.8 mi Calm Calm - N/A   Clear
3:18 AM 55.4 °F - 53.6 °F 94% 30.19 in 0.5 mi Calm Calm - N/A Fog Fog
3:27 AM 55.4 °F - 53.6 °F 94% 30.19 in 0.8 mi Calm Calm - N/A   Clear
3:28 AM 55.4 °F - 53.6 °F 94% 30.19 in 1.0 mi Calm Calm - N/A   Clear
3:29 AM 55.4 °F - 53.6 °F 94% 30.19 in 1.5 mi Calm Calm - N/A   Clear
3:30 AM 55.4 °F - 53.6 °F 94% 30.19 in 3.0 mi Calm Calm - N/A   Clear
3:34 AM 55.4 °F - 53.6 °F 94% 30.19 in 1.8 mi Calm Calm - N/A   Clear
3:35 AM 55.4 °F - 53.6 °F 94% 30.19 in 1.2 mi Calm Calm - N/A   Clear
3:36 AM 55.4 °F - 53.6 °F 94% 30.19 in 0.8 mi Calm Calm - N/A   Clear
3:38 AM 55.4 °F - 53.6 °F 94% 30.19 in 0.5 mi Calm Calm - N/A Fog Fog
3:42 AM 55.4 °F - 53.6 °F 94% 30.19 in 0.2 mi Calm Calm - N/A Fog Fog
3:55 AM 54.1 °F - 53.4 °F 97% 30.18 in 0.5 mi Calm Calm - N/A Fog Fog
3:58 AM 53.6 °F - 53.6 °F 100% 30.18 in 0.8 mi Calm Calm - N/A   Clear
4:00 AM 53.6 °F - 53.6 °F 100% 30.18 in 1.0 mi Calm Calm - N/A   Clear
4:01 AM 53.6 °F - 53.6 °F 100% 30.18 in 1.2 mi Calm Calm - N/A   Clear
4:02 AM 53.6 °F - 53.6 °F 100% 30.18 in 1.8 mi Calm Calm - N/A   Clear
4:03 AM 53.6 °F - 53.6 °F 100% 30.18 in 2.0 mi Calm Calm - N/A   Clear
4:04 AM 53.6 °F - 53.6 °F 100% 30.18 in 2.5 mi Calm Calm - N/A   Clear
4:07 AM 53.6 °F - 53.6 °F 100% 30.18 in 2.0 mi Calm Calm - N/A   Clear
4:08 AM 53.6 °F - 53.6 °F 100% 30.19 in 1.5 mi Calm Calm - N/A   Clear
4:09 AM 53.6 °F - 53.6 °F 100% 30.19 in 1.2 mi Calm Calm - N/A   Clear
4:11 AM 53.6 °F - 53.6 °F 100% 30.19 in 1.0 mi Calm Calm - N/A   Clear
4:16 AM 53.6 °F - 53.6 °F 100% 30.18 in 1.2 mi Calm Calm - N/A   Clear
4:18 AM 53.6 °F - 53.6 °F 100% 30.18 in 1.5 mi Calm Calm - N/A   Clear
4:20 AM 53.6 °F - 53.6 °F 100% 30.18 in 2.0 mi Calm Calm - N/A   Clear
4:21 AM 53.6 °F - 53.6 °F 100% 30.19 in 2.5 mi Calm Calm - N/A   Clear
4:24 AM 53.6 °F - 53.6 °F 100% 30.19 in 3.0 mi Calm Calm - N/A   Clear
4:39 AM 53.6 °F - 53.6 °F 100% 30.19 in 2.5 mi Calm Calm - N/A   Clear
4:40 AM 53.6 °F - 53.6 °F 100% 30.19 in 1.8 mi Calm Calm - N/A   Clear
4:42 AM 53.6 °F - 53.6 °F 100% 30.19 in 1.2 mi Calm Calm - N/A   Clear
4:48 AM 55.4 °F - 53.6 °F 94% 30.19 in 1.5 mi Calm Calm - N/A   Clear
4:50 AM 55.4 °F - 53.6 °F 94% 30.19 in 2.5 mi North 3.5 mph - N/A   Clear
4:52 AM 55.4 °F - 53.6 °F 94% 30.19 in 2.0 mi Calm Calm - N/A   Clear
4:54 AM 53.6 °F - 53.6 °F 100% 30.19 in 1.0 mi Calm Calm - N/A   Clear
4:55 AM 54.5 °F - 54.0 °F 98% 30.19 in 1.5 mi Calm Calm - N/A   Clear
4:56 AM 53.6 °F - 53.6 °F 100% 30.19 in 0.5 mi Calm Calm - N/A Fog Fog
5:00 AM 53.6 °F - 53.6 °F 100% 30.19 in 0.2 mi Calm Calm - N/A Fog Fog
5:13 AM 53.6 °F - 53.6 °F 100% 30.19 in 0.5 mi Calm Calm - N/A Fog Fog
5:21 AM 53.6 °F - 51.8 °F 94% 30.19 in 0.2 mi Calm Calm - N/A Fog Fog
5:28 AM 51.8 °F - 51.8 °F 100% 30.19 in 0.5 mi Calm Calm - N/A Fog Fog
5:36 AM 53.6 °F - 53.6 °F 100% 30.19 in 0.8 mi Calm Calm - N/A   Clear
5:39 AM 53.6 °F - 53.6 °F 100% 30.19 in 1.0 mi Calm Calm - N/A   Clear
5:40 AM 53.6 °F - 53.6 °F 100% 30.19 in 1.2 mi Calm Calm - N/A   Clear
5:42 AM 53.6 °F - 51.8 °F 94% 30.19 in 1.5 mi Calm Calm - N/A   Clear
5:47 AM 51.8 °F - 51.8 °F 100% 30.20 in 1.2 mi Calm Calm - N/A   Clear
5:49 AM 51.8 °F - 51.8 °F 100% 30.20 in 1.0 mi Calm Calm - N/A   Clear
5:52 AM 51.8 °F - 51.8 °F 100% 30.20 in 0.8 mi Calm Calm - N/A   Clear
5:55 AM 52.5 °F - 52.0 °F 98% 30.20 in 0.8 mi Calm Calm - N/A   Clear
6:04 AM 51.8 °F - 51.8 °F 100% 30.20 in 1.0 mi Calm Calm - N/A   Clear
6:08 AM 53.6 °F - 51.8 °F 94% 30.20 in 1.2 mi Calm Calm - N/A   Clear
6:10 AM 53.6 °F - 51.8 °F 94% 30.20 in 1.5 mi Calm Calm - N/A   Clear
6:13 AM 53.6 °F - 51.8 °F 94% 30.21 in 2.0 mi Calm Calm - N/A   Clear
6:14 AM 53.6 °F - 51.8 °F 94% 30.21 in 2.5 mi Calm Calm - N/A   Clear
6:15 AM 53.6 °F - 51.8 °F 94% 30.21 in 3.0 mi Calm Calm - N/A   Clear
6:35 AM 51.8 °F - 51.8 °F 100% 30.21 in 2.0 mi NNW 3.5 mph - N/A   Clear
6:36 AM 51.8 °F - 51.8 °F 100% 30.21 in 1.5 mi North 3.5 mph - N/A   Clear
6:37 AM 51.8 °F - 51.8 °F 100% 30.21 in 0.8 mi North 3.5 mph - N/A   Clear
6:38 AM 51.8 °F - 51.8 °F 100% 30.21 in 0.5 mi North 3.5 mph - N/A Fog Fog
6:40 AM 51.8 °F - 51.8 °F 100% 30.21 in 0.2 mi North 4.6 mph - N/A Fog Fog
6:55 AM 51.8 °F - 51.3 °F 98% 30.23 in 1.0 mi North 3.5 mph - N/A   Mist
7:17 AM 51.8 °F - 51.8 °F 100% 30.23 in 5.0 mi NNW 3.5 mph - N/A   Clear
7:55 AM 57.4 °F - 56.8 °F 98% 30.27 in 10.0 mi North 1.2 mph - N/A   Clear
8:56 AM 66.6 °F - 59.5 °F 78% 30.29 in 10.0 mi NNE 3.5 mph - N/A   Clear
9:55 AM 74.7 °F - 60.3 °F 61% 30.28 in 10.0 mi NE 2.3 mph - N/A   Clear
10:55 AM 79.2 °F - 60.8 °F 53% 30.28 in 10.0 mi North 2.3 mph - N/A   Clear
11:55 AM 81.9 °F 82.2 °F 60.1 °F 47% 30.27 in 10.0 mi NE 5.8 mph - N/A   Partly Cloudy
12:55 PM 83.1 °F 83.3 °F 60.3 °F 46% 30.25 in 10.0 mi NE 3.5 mph - N/A   Clear
1:55 PM 85.6 °F 85.9 °F 61.7 °F 44% 30.23 in 10.0 mi NNE 6.9 mph - N/A   Partly Cloudy
3:55 PM 85.5 °F 85.9 °F 61.7 °F 45% 30.19 in 10.0 mi NW 3.5 mph - N/A   Partly Cloudy
4:55 PM 85.1 °F 85.7 °F 62.1 °F 46% 30.19 in 10.0 mi NNW 5.8 mph - N/A   Partly Cloudy
5:55 PM 80.1 °F 81.2 °F 62.1 °F 54% 30.19 in 10.0 mi South 3.5 mph - N/A   Partly Cloudy
6:55 PM 76.1 °F - 61.5 °F 60% 30.20 in 10.0 mi SSW 4.6 mph - N/A   Clear
7:55 PM 72.7 °F - 60.4 °F 65% 30.21 in 10.0 mi West 2.3 mph - N/A   Clear
8:55 PM 69.6 °F - 61.0 °F 74% 30.22 in 10.0 mi Calm Calm - N/A   Clear
9:55 PM 65.8 °F - 60.4 °F 83% 30.22 in 10.0 mi NW 1.2 mph - N/A   Clear
10:55 PM 64.9 °F - 61.2 °F 88% 30.22 in 10.0 mi WNW 1.2 mph - N/A   Clear
11:55 PM 63.3 °F - 60.4 °F 90% 30.21 in 10.0 mi Calm Calm - N/A   Clear